sat.trackr.live / text

‹ back to catalog

STARLINK-4032

NORAD 52688 · 2022-053AJ

PAYLOAD ACTIVE UNKNOWN

§ Identity

Operator
Country
US
Launch date
2022-05-18
Launch site
AFETR
Launch vehicle
Mass (kg)
RCS (m²)

Purposes: comms

External: N2YO · Heavens-Above · Gunter

§ Orbital elements

Epoch: 2026-09-20T04:00:03.000096Z

Period
94.36 min
Inclination
53.1608°
Eccentricity
0.0001196
Mean motion
15.26038160 rev/d
Perigee alt
486.8 km
Apogee alt
488.5 km
Semi-major
6,865.8 km
B*
3.1330e-3
RAAN
348.8270°
Arg perigee
112.1868°
Mean anomaly
95.0114°
Rev number
578

§ Raw data

STARLINK-40321 52688U 22053AJ  26263.16670139  .00082286  00000+0  31330-2 0  99902 52688  53.1608 348.8270 0001196 112.1868  95.0114 15.26038160  5782

JSON: /api/v1/satellites/52688 · /tle

For live sub-satellite position, see the globe view (requires WebGL).

§ Visibility from observer

Set your observer location to see the next 7 days of passes ≥ 10°. The values pass through the URL so the page stays shareable.

No JS? Fill the form by hand. The geolocation button needs JavaScript.